Theta_e
325 328 331 332 331 333 335 335 335 334 333 330 327 321 316 315 315 315 316 316 316 316 314 313 313 312 310 309 309 311 310 306 307 310 321 315 313 309 308 311 311 311 313
326 329 330 332 332 331 333 333 333 331 331 331 327 322 317 314 314 313 315 317 317 314 313 310 310 308 306 306 306 307 308 305 306 305 314 310 312 312 308 307 308 308 311
324 327 329 330 332 332 332 332 331 330 329 322 320 317 315 314 312 309 312 315 319 318 309 309 307 306 305 305 304 305 303 304 304 305 310 310 306 305 308 305 305 306 306
325 326 327 328 329 332 333 333 332 332 324 321 319 316 314 311 309 308 309 310 312 312 309 308 306 305 304 303 304 304 303 300 300 301 306 301 304 303 297 303 301 304 305
327 326 327 328 330 332 332 332 331 329 326 324 322 319 317 315 311 309 311 308 307 310 309 307 305 304 304 303 302 302 301 301 300 298 298 297 297 297 299 293 295 297 301
320 330 330 329 330 332 331 330 328 326 327 326 324 320 315 313 310 311 307 306 305 306 306 306 304 302 301 301 301 300 300 299 298 297 297 296 294 294 294 293 292 292 297
319 326 326 327 328 328 329 327 325 323 323 322 323 318 315 314 310 308 306 305 302 303 303 303 302 300 300 302 301 299 299 298 297 297 296 296 295 295 294 293 291 292 294
320 326 325 326 327 325 324 322 320 317 316 317 317 316 315 313 310 309 307 304 304 302 302 302 302 301 302 300 299 298 299 298 297 296 295 297 297 297 296 294 291 289 290
316 314 317 322 320 319 318 317 316 315 314 312 312 313 310 309 307 308 306 303 302 303 301 301 300 300 300 299 298 298 298 297 297 296 296 296 296 296 296 295 294 291 287
311 312 312 313 314 315 315 314 313 311 309 308 308 307 308 307 306 304 302 301 301 301 300 300 300 300 300 299 298 297 297 296 296 296 296 295 295 295 295 295 294 294 292
309 311 311 312 312 312 312 311 309 307 305 304 304 305 306 306 304 302 302 302 301 300 300 300 300 299 299 298 296 296 297 296 295 296 297 296 296 294 294 294 293 294 295
304 306 307 304 304 305 307 306 305 304 303 303 302 301 302 303 303 303 300 301 298 299 299 299 301 300 298 297 298 298 297 296 296 297 297 297 299 296 294 294 292 292 293
302 302 302 301 301 302 303 303 303 302 303 302 302 302 302 303 301 298 297 297 297 297 298 299 299 300 298 298 299 300 299 299 298 298 297 297 297 295 294 293 293 292 295
302 301 301 301 302 302 302 303 303 304 304 303 302 301 300 300 300 298 297 297 297 297 297 299 300 299 299 299 299 300 299 300 300 299 299 299 299 298 295 295 294 294 293
301 301 300 300 301 301 302 304 304 304 304 303 303 302 302 302 302 302 301 301 301 300 300 299 298 298 299 300 297 298 296 294 296 299 300 301 304 309 302 297 295 293 291
301 301 302 301 301 301 302 303 303 304 304 303 303 304 302 301 300 300 300 300 300 299 298 299 299 298 301 302 304 298 295 295 294 296 297 298 303 303 308 309 309 298 292
302 302 301 301 302 302 303 302 303 304 304 303 304 303 303 300 299 298 296 297 297 296 295 295 296 296 298 301 301 304 295 294 294 294 295 298 302 304 302 303 306 307 305
302 302 302 302 303 303 303 304 305 305 304 303 305 305 304 303 301 299 297 295 294 294 293 294 295 296 299 301 300 302 297 294 294 295 296 296 297 299 301 300 299 298 297
302 302 303 303 303 304 305 304 304 304 304 304 303 306 306 303 302 300 299 297 296 296 296 297 297 295 296 300 301 301 297 295 295 297 298 299 298 300 301 300 295 293 292
302 302 303 304 303 304 305 304 304 304 303 305 304 305 305 303 301 300 298 297 297 297 299 299 299 301 299 300 300 300 298 295 298 300 300 303 302 299 296 292 290 288 289
303 304 304 303 304 305 304 303 303 302 305 306 306 305 304 304 301 300 300 298 298 299 298 299 299 299 300 300 300 300 299 298 297 300 297 299 297 295 294 294 289 290 290
303 303 303 304 302 303 302 302 302 304 303 305 302 304 302 302 302 299 299 299 298 298 298 297 297 299 300 302 301 299 298 299 296 295 298 298 297 295 294 294 294 294 295
300 301 300 300 299 301 303 299 300 304 302 303 300 300 301 301 302 300 299 298 298 297 297 297 297 297 297 296 298 297 297 299 295 296 298 297 294 294 293 294 294 295 289
299 300 299 300 301 300 302 300 301 301 299 298 298 300 300 300 300 301 300 299 298 297 297 296 296 295 293 293 294 295 294 292 295 297 288 290 292 293 292 291 290 289 288
300 300 299 299 300 300 300 299 300 301 299 298 299 298 299 299 300 303 301 300 301 299 298 297 296 294 292 293 294 293 290 287 288 286 283 283 283 283 284 286 287 287 286
301 300 300 299 299 299 298 299 299 300 298 297 297 298 298 299 299 301 303 296 295 296 296 295 297 296 295 295 293 292 291 290 290 283 281 281 282 283 284 285 286 286 288
Wind_Speed
7 10 11 12 10 7 11 12 13 10 11 10 10 7 6 5 5 5 8 8 7 6 6 4 5 5 5 4 3 1 3 4 3 3 6 6 5 5 4 4 5 6 5
10 8 9 11 15 10 11 12 11 8 7 7 4 5 6 4 5 4 7 7 8 6 6 5 5 5 4 5 5 4 2 2 4 4 3 4 2 3 5 4 4 5 4
16 24 26 26 21 21 17 14 15 12 7 11 10 8 8 5 4 4 5 5 7 5 6 6 5 5 4 4 4 3 3 3 3 5 4 3 4 2 4 4 4 4 3
33 29 29 28 22 18 16 15 12 13 10 10 12 15 7 5 3 4 4 5 6 5 6 6 6 6 4 5 4 4 3 3 2 3 4 5 4 4 3 3 3 3 4
17 20 29 23 20 19 18 16 13 11 10 7 9 9 8 6 7 7 9 6 6 7 7 6 7 6 4 4 6 6 6 4 3 2 1 5 5 4 5 2 3 4 3
17 15 8 10 15 14 16 14 14 11 9 9 6 10 12 11 8 7 8 6 5 5 7 7 6 5 5 5 5 6 7 6 5 4 5 3 3 2 3 4 2 2 3
15 15 11 13 14 17 14 12 14 11 9 10 8 9 12 12 12 10 8 9 4 3 5 6 5 4 5 6 6 6 6 5 5 5 4 4 4 2 3 4 2 3 2
23 11 6 10 11 13 14 15 18 16 13 12 11 9 10 6 8 9 8 5 5 5 5 6 6 6 6 6 6 4 4 6 6 8 6 5 5 5 3 4 4 3 4
19 21 18 7 11 17 15 13 18 18 14 11 9 7 8 9 7 11 9 5 5 5 6 6 7 6 6 6 7 5 6 6 5 6 6 5 4 5 4 5 3 4 2
16 15 14 14 15 9 15 16 14 16 14 14 11 8 7 9 9 11 11 8 6 6 7 6 7 6 6 6 7 5 5 7 4 4 7 6 4 5 5 4 4 4 3
12 12 11 12 15 13 14 11 15 14 13 11 10 11 10 10 9 10 9 9 7 7 6 7 6 6 6 5 6 7 6 7 6 5 6 7 6 4 4 4 4 4 3
8 12 12 12 13 12 8 12 13 13 11 6 10 8 8 9 8 7 6 6 7 7 6 6 6 6 6 5 6 6 6 7 7 6 6 5 4 5 3 4 4 3 3
7 9 12 13 13 12 10 11 11 9 7 8 10 6 7 8 8 7 6 6 7 7 7 7 6 6 5 6 5 6 5 5 6 6 4 3 3 2 2 3 3 2 1
9 10 9 11 11 11 11 13 10 9 8 8 6 6 6 6 5 6 6 7 6 7 6 6 6 5 5 4 4 6 6 6 4 2 2 2 2 3 3 3 4 4 3
10 9 10 9 10 9 10 9 9 8 8 9 7 6 4 3 4 5 6 6 5 5 5 4 5 3 3 2 1 4 5 3 1 3 3 2 5 7 7 4 5 3 3
6 10 9 10 8 9 7 8 6 5 3 6 6 6 6 5 3 3 4 5 5 4 3 2 2 3 2 1 2 4 3 5 4 4 5 4 7 7 9 9 15 9 6
7 6 7 7 8 4 4 5 6 5 4 4 4 4 5 4 5 4 4 5 4 3 3 1 2 2 2 6 7 6 3 5 5 5 5 5 4 6 5 9 11 10 14
8 7 6 6 5 4 4 3 4 5 7 7 6 7 7 5 5 5 4 3 2 4 3 4 4 4 5 9 10 10 5 5 7 7 7 6 7 7 7 6 6 6 4
7 6 6 5 4 4 4 3 3 5 4 4 6 7 6 6 5 5 7 5 4 4 5 5 6 6 8 8 10 8 5 6 8 8 6 7 7 9 11 6 3 2 5
6 6 5 4 5 6 6 6 7 6 8 7 7 7 7 7 7 8 7 5 5 6 5 6 6 8 7 9 11 8 4 5 5 6 5 6 6 9 6 3 1 4 7
6 5 5 5 6 5 6 7 6 7 10 9 9 7 9 9 8 7 5 6 6 5 5 6 6 6 7 8 12 13 5 5 4 4 1 2 3 7 6 6 4 7 6
7 7 7 8 6 7 5 7 7 9 5 6 7 7 7 7 6 7 4 4 5 5 5 4 4 4 5 7 9 9 7 5 4 4 3 3 5 10 11 8 10 14 13
6 5 7 7 6 6 6 6 7 5 4 6 6 4 6 5 4 5 4 2 3 3 4 3 4 4 2 3 0 3 5 5 2 3 5 6 9 10 8 13 12 10 4
9 7 6 7 8 7 6 8 6 5 5 5 3 4 4 4 3 3 4 4 4 4 4 4 4 4 2 3 2 2 1 2 3 2 3 5 6 7 7 6 6 4 4
7 6 7 8 10 7 8 7 7 6 5 5 5 2 2 4 5 5 4 4 5 5 5 5 5 4 4 5 7 6 4 3 3 1 2 3 2 4 5 4 5 4 4
8 7 8 8 10 7 8 7 6 6 6 4 4 5 4 4 4 4 4 5 8 8 11 9 7 4 7 8 10 10 9 7 5 1 3 4 4 5 5 5 5 4 7
Wind_Direction
138 114 107 112 97 80 137 148 145 150 138 136 131 122 121 107 87 82 81 76 68 61 73 67 70 60 64 66 31 83 99 26 9 99 72 56 53 56 55 87 88 88 88
103 95 118 139 147 156 163 154 149 137 135 130 104 113 127 91 102 100 83 77 76 65 77 75 80 70 76 48 35 51 110 47 12 120 82 120 38 35 40 59 80 91 98
173 179 165 171 176 169 162 157 143 131 118 114 105 97 100 94 88 90 89 84 85 87 81 79 86 71 71 62 34 35 82 137 360 41 141 129 164 143 16 34 65 86 88
191 184 181 176 179 162 151 145 140 124 128 132 132 148 145 142 138 125 116 107 101 96 88 87 87 82 73 64 47 31 49 88 61 2 27 50 123 149 118 5 35 52 68
265 207 186 172 164 153 147 143 136 121 129 122 132 144 141 121 127 122 124 115 95 89 82 88 81 87 89 79 73 59 58 53 84 69 58 45 54 59 116 116 349 29 31
279 225 238 169 154 145 140 141 133 128 116 118 120 130 137 139 130 140 124 116 102 100 94 91 96 98 87 80 74 73 66 62 67 55 52 72 90 22 101 106 127 123 10
279 193 182 178 152 141 133 129 123 110 104 109 131 138 139 147 144 143 136 135 115 108 123 118 110 96 97 93 86 74 70 53 72 66 66 55 57 98 84 85 70 88 357
11 38 138 151 145 131 125 124 116 107 98 97 115 145 139 129 135 133 139 123 133 130 127 112 105 99 103 91 84 79 75 68 70 74 62 68 49 55 62 114 125 65 26
28 35 28 39 133 120 115 115 125 114 100 88 88 93 102 112 129 137 125 114 117 121 111 106 95 87 94 95 91 86 91 76 73 77 73 75 59 61 64 64 72 123 97
49 33 47 28 47 53 99 98 78 91 107 103 96 87 83 94 105 112 111 119 113 109 114 105 100 94 108 112 100 88 86 87 72 79 77 72 61 67 63 77 73 63 116
61 62 58 57 57 57 69 78 66 71 63 68 82 90 92 98 100 113 125 132 133 131 118 118 112 104 100 106 99 104 101 93 86 72 82 80 86 74 70 65 67 73 91
75 91 64 60 65 62 82 105 106 105 115 103 96 84 93 96 99 95 92 107 113 113 119 114 111 109 107 106 124 116 114 107 90 85 77 73 89 83 84 87 75 97 141
66 78 89 94 88 69 70 64 79 88 76 85 85 97 77 82 88 83 86 87 95 99 106 111 104 92 101 97 105 113 111 118 130 127 122 143 117 139 187 173 160 152 109
69 69 70 79 79 84 96 107 94 94 101 96 78 78 83 95 96 109 104 100 106 105 108 113 116 125 116 123 118 89 85 75 66 87 210 239 234 231 228 241 219 205 219
108 91 88 88 94 94 97 96 90 100 116 117 116 121 94 93 110 111 111 104 98 90 83 88 87 65 61 54 61 135 115 89 311 320 317 293 266 295 214 217 248 221 229
135 129 120 110 104 114 111 109 112 116 139 131 146 142 147 156 135 120 120 113 122 112 97 98 192 226 230 230 133 185 170 213 222 252 272 269 291 287 282 270 252 209 204
151 138 113 120 117 129 145 146 153 157 179 141 139 157 180 163 164 169 165 162 163 180 210 233 222 225 287 275 260 260 251 239 230 240 262 292 277 290 285 289 284 255 232
137 118 117 125 135 161 139 175 168 193 197 167 195 194 195 189 186 161 202 191 198 215 211 237 243 249 257 241 243 253 238 244 251 242 242 238 265 268 273 281 274 270 259
129 148 169 157 142 167 165 189 225 239 234 216 206 203 199 194 189 198 211 209 208 215 222 223 229 233 258 254 255 254 229 237 245 250 242 232 257 272 273 278 249 257 277
165 166 167 164 172 196 197 220 221 225 239 233 225 206 195 193 193 210 208 205 198 215 206 235 231 235 253 257 247 237 216 235 253 261 255 276 271 279 176 168 242 284 267
175 160 173 191 213 204 205 228 235 235 236 229 225 212 203 204 204 208 192 197 214 218 229 238 248 250 241 263 263 261 210 208 212 226 261 15 336 249 226 209 226 244 261
199 200 198 219 224 226 209 231 237 243 216 211 206 200 188 199 200 204 209 198 189 201 231 235 271 260 264 260 262 248 204 163 169 206 227 225 228 228 233 271 264 263 268
208 203 208 229 240 228 204 232 255 223 181 157 153 152 172 185 163 157 191 186 178 197 248 238 261 273 280 314 310 132 161 196 212 249 254 234 226 245 254 257 256 265 245
215 217 219 230 242 236 220 215 219 174 156 144 171 155 145 152 178 188 199 199 214 217 227 237 234 224 224 248 238 244 270 341 283 284 294 277 289 282 277 299 290 278 251
211 200 207 224 233 225 224 203 200 163 180 175 192 181 165 216 237 233 223 221 225 190 208 221 197 186 227 237 203 191 199 213 243 282 319 313 310 289 288 279 260 282 280
208 203 214 217 233 214 217 212 198 181 173 189 211 216 216 241 244 246 272 234 240 220 216 198 169 206 210 204 185 192 206 199 201 108 248 267 258 265 275 281 284 282 270